Tracking 30743 objects as of 22-Jun-2025
HD Live streaming from Space Station
objects crossing your sky now

STARLINK-6029

Track STARLINK-6029 now!
10-day predictions
STARLINK-6029 is classified as:


NORAD ID: 56803
Int'l Code: 2023-078AN
Perigee: 577.7 km
Apogee: 580.8 km
Inclination: 70.0 °
Period: 96.1 minutes
Semi major axis: 6950 km
RCS: Unknown
Launch date: May 31, 2023
Source: United States (US)
Launch site: AIR FORCE WESTERN TEST RANGE (AFWTR)
Your satellite tracking list
Your tracking list is empty




NASA's NSSDC Master Catalog

Two Line Element Set (TLE):
1 56803U 23078AN  25173.01061929 -.00004781  00000-0 -39331-3 0  9992
2 56803  70.0031 281.6982 0002250 248.5606 111.5313 14.98320413113893
Source of the keplerian elements: AFSPC